QPF
0.00 0.00 0.00 0.00 0.00 0.00 0.00 0.00 0.00 0.00 0.00 0.00 0.00 0.00 0.00 0.00 0.00 0.00 0.00 0.00 0.00 0.00 0.00 0.00 0.00 0.00 0.00 0.00 0.00 0.00 0.00 0.00 0.00
0.00 0.00 0.00 0.00 0.00 0.00 0.00 0.00 0.00 0.00 0.00 0.00 0.00 0.00 0.00 0.00 0.00 0.00 0.00 0.00 0.00 0.00 0.00 0.00 0.00 0.00 0.00 0.00 0.00 0.00 0.00 0.00 0.00
0.00 0.00 0.00 0.00 0.00 0.00 0.00 0.00 0.00 0.00 0.00 0.00 0.00 0.00 0.00 0.00 0.00 0.00 0.00 0.00 0.00 0.00 0.00 0.00 0.00 0.00 0.00 0.00 0.00 0.00 0.00 0.00 0.00
0.00 0.00 0.00 0.00 0.00 0.00 0.00 0.00 0.00 0.00 0.00 0.00 0.00 0.00 0.00 0.00 0.00 0.00 0.00 0.00 0.00 0.00 0.00 0.00 0.00 0.00 0.00 0.00 0.00 0.00 0.00 0.00 0.00
0.00 0.00 0.00 0.00 0.00 0.00 0.00 0.00 0.00 0.00 0.00 0.00 0.00 0.00 0.00 0.00 0.00 0.00 0.00 0.00 0.00 0.00 0.00 0.00 0.00 0.00 0.00 0.00 0.00 0.00 0.00 0.00 0.00
0.00 0.00 0.00 0.00 0.00 0.00 0.00 0.00 0.00 0.00 0.00 0.00 0.00 0.00 0.00 0.00 0.00 0.00 0.00 0.00 0.00 0.00 0.00 0.00 0.00 0.00 0.00 0.00 0.00 0.00 0.00 0.00 0.00
0.00 0.00 0.00 0.00 0.00 0.00 0.00 0.00 0.00 0.00 0.00 0.00 0.00 0.00 0.00 0.00 0.01 0.00 0.00 0.00 0.00 0.00 0.00 0.01 0.00 0.00 0.00 0.00 0.00 0.00 0.00 0.00 0.00
0.00 0.00 0.00 0.00 0.00 0.00 0.00 0.00 0.00 0.00 0.00 0.00 0.00 0.00 0.00 0.00 0.00 0.01 0.00 0.01 0.02 0.02 0.02 0.03 0.02 0.02 0.00 0.00 0.00 0.00 0.00 0.00 0.00
0.00 0.00 0.00 0.00 0.00 0.00 0.00 0.00 0.00 0.00 0.00 0.00 0.00 0.00 0.00 0.00 0.00 0.00 0.00 0.02 0.06 0.12 0.10 0.08 0.06 0.05 0.01 0.00 0.00 0.00 0.00 0.00 0.00
0.00 0.00 0.00 0.00 0.00 0.00 0.00 0.00 0.00 0.00 0.00 0.00 0.00 0.00 0.00 0.00 0.00 0.00 0.00 0.00 0.01 0.15 0.09 0.06 0.04 0.04 0.01 0.00 0.00 0.00 0.00 0.00 0.00
0.00 0.00 0.00 0.00 0.00 0.00 0.00 0.00 0.00 0.00 0.00 0.00 0.00 0.00 0.00 0.00 0.00 0.00 0.00 0.00 0.00 0.03 0.04 0.04 0.03 0.03 0.01 0.00 0.00 0.00 0.00 0.00 0.03
0.00 0.00 0.00 0.00 0.00 0.00 0.00 0.00 0.00 0.00 0.00 0.00 0.00 0.00 0.00 0.00 0.00 0.00 0.00 0.00 0.00 0.00 0.01 0.02 0.02 0.01 0.00 0.00 0.01 0.00 0.00 0.00 0.01
0.00 0.00 0.00 0.00 0.00 0.00 0.00 0.00 0.00 0.00 0.00 0.00 0.00 0.00 0.00 0.00 0.00 0.00 0.00 0.00 0.00 0.00 0.00 0.01 0.00 0.00 0.00 0.00 0.00 0.01 0.00 0.00 0.00
0.00 0.00 0.00 0.00 0.00 0.00 0.00 0.00 0.00 0.00 0.00 0.00 0.00 0.00 0.00 0.00 0.00 0.00 0.00 0.00 0.00 0.00 0.00 0.00 0.00 0.00 0.01 0.01 0.01 0.01 0.03 0.02 0.00
0.00 0.00 0.00 0.00 0.00 0.00 0.00 0.00 0.00 0.00 0.00 0.00 0.00 0.00 0.00 0.00 0.00 0.00 0.00 0.00 0.00 0.01 0.01 0.01 0.02 0.04 0.04 0.03 0.02 0.00 0.02 0.02 0.01
0.00 0.00 0.00 0.00 0.00 0.00 0.00 0.00 0.00 0.00 0.00 0.00 0.00 0.00 0.00 0.00 0.00 0.00 0.00 0.00 0.00 0.01 0.01 0.02 0.04 0.06 0.04 0.01 0.00 0.00 0.00 0.00 0.00
0.00 0.00 0.00 0.00 0.00 0.00 0.00 0.00 0.00 0.00 0.00 0.00 0.00 0.00 0.00 0.00 0.01 0.01 0.00 0.01 0.01 0.01 0.01 0.02 0.06 0.05 0.01 0.00 0.00 0.00 0.00 0.00 0.00
0.00 0.00 0.00 0.00 0.00 0.00 0.00 0.00 0.00 0.00 0.00 0.00 0.00 0.00 0.00 0.00 0.01 0.02 0.01 0.01 0.00 0.00 0.01 0.01 0.02 0.01 0.00 0.00 0.00 0.00 0.00 0.00 0.00
0.00 0.00 0.00 0.00 0.00 0.00 0.00 0.00 0.00 0.00 0.00 0.00 0.00 0.00 0.00 0.00 0.00 0.00 0.00 0.00 0.00 0.00 0.00 0.00 0.00 0.00 0.00 0.00 0.00 0.00 0.00 0.00 0.00
0.00 0.00 0.00 0.00 0.00 0.00 0.00 0.00 0.00 0.00 0.00 0.00 0.00 0.00 0.00 0.00 0.00 0.00 0.00 0.00 0.00 0.00 0.00 0.00 0.00 0.00 0.00 0.00 0.00 0.00 0.00 0.00 0.00
MSLP
997.55 998.98 1000.05 1001.01 1001.99 1003.08 1004.14 1005.18 1006.15 1007.22 1008.03 1008.97 1009.60 1010.27 1010.92 1011.65 1012.29 1012.74 1013.24 1013.72 1013.57 1014.05 1014.27 1015.02 1015.53 1016.24 1016.46 1016.68 1016.77 1017.04 1017.52 1017.99 1018.32
996.52 997.23 998.31 999.45 1000.71 1001.83 1002.89 1003.97 1004.99 1005.94 1007.00 1007.91 1008.57 1009.27 1010.22 1010.89 1011.66 1012.34 1012.38 1013.02 1013.69 1013.80 1014.07 1014.55 1015.50 1015.67 1016.22 1016.69 1016.87 1017.06 1017.45 1017.59 1017.91
995.06 996.05 997.05 998.11 999.13 1000.23 1001.52 1002.55 1003.80 1005.12 1006.06 1006.79 1007.65 1008.40 1009.14 1009.98 1010.80 1011.58 1012.13 1012.65 1013.31 1013.52 1013.96 1014.26 1014.90 1015.54 1015.84 1016.37 1016.85 1016.97 1017.48 1017.24 1017.49
993.99 994.68 995.65 996.72 997.80 998.98 1000.31 1001.58 1002.56 1003.83 1004.94 1005.84 1006.72 1007.22 1007.94 1008.87 1009.69 1010.58 1011.54 1011.87 1012.47 1012.73 1013.95 1014.44 1014.71 1014.82 1015.65 1016.28 1016.63 1016.64 1017.03 1017.15 1017.16
993.40 993.99 994.65 995.59 996.70 998.12 999.10 1000.40 1001.30 1002.41 1003.46 1004.41 1005.17 1005.88 1006.90 1007.77 1008.71 1009.62 1010.52 1010.96 1011.81 1012.53 1012.91 1013.88 1014.39 1015.42 1014.72 1015.12 1015.70 1016.28 1016.53 1016.78 1016.76
993.64 994.44 995.09 995.35 996.06 997.07 998.21 999.38 1000.37 1001.09 1002.14 1002.94 1003.89 1005.19 1006.04 1006.86 1007.80 1008.98 1009.84 1010.42 1011.14 1012.03 1012.42 1013.26 1014.19 1013.88 1014.41 1015.23 1015.25 1015.59 1015.98 1016.15 1016.53
993.02 994.07 994.83 995.25 995.91 996.57 997.71 998.70 999.56 1000.31 1001.04 1002.00 1003.00 1003.91 1004.99 1006.08 1007.20 1008.02 1008.60 1009.24 1010.23 1010.93 1011.55 1012.26 1012.84 1012.77 1012.83 1014.02 1014.50 1014.99 1015.33 1015.58 1015.80
992.63 993.54 994.60 994.93 995.54 996.24 997.28 998.17 998.99 999.95 1000.73 1001.50 1002.16 1003.19 1004.22 1005.33 1006.61 1007.80 1008.49 1008.63 1009.28 1009.94 1010.58 1011.26 1012.01 1012.75 1013.03 1013.76 1014.22 1014.01 1014.82 1015.02 1015.33
992.25 992.86 993.85 994.46 995.32 995.99 996.70 997.43 998.44 999.47 1000.25 1001.04 1001.95 1002.60 1003.50 1004.90 1006.16 1007.26 1007.47 1008.30 1008.69 1009.48 1009.86 1010.38 1011.34 1011.88 1012.47 1013.16 1013.16 1013.55 1014.16 1014.47 1014.60
991.68 991.90 992.47 993.42 994.31 994.88 995.93 996.86 997.95 998.83 999.83 1000.70 1001.53 1002.21 1003.27 1004.44 1005.46 1006.40 1007.12 1007.69 1008.50 1008.83 1009.46 1010.34 1010.99 1011.53 1012.36 1012.40 1012.77 1013.16 1013.53 1013.87 1014.18
991.18 991.32 991.62 992.38 993.38 994.60 995.79 996.44 997.37 998.50 999.45 1000.31 1001.17 1001.95 1002.85 1003.87 1004.95 1005.66 1006.31 1006.97 1007.60 1008.30 1009.07 1009.51 1010.27 1010.92 1011.45 1011.91 1012.01 1012.51 1013.04 1013.63 1013.94
990.86 990.98 991.38 991.82 992.68 993.90 995.24 995.83 996.85 997.93 998.85 999.93 1001.00 1001.96 1002.73 1003.53 1004.65 1005.47 1006.02 1006.62 1007.23 1008.07 1008.52 1009.11 1009.66 1010.30 1010.70 1011.08 1011.58 1011.85 1012.34 1012.97 1013.34
991.39 991.29 991.63 992.32 992.98 993.79 994.91 995.41 996.48 997.54 998.52 999.60 1000.53 1001.52 1002.53 1003.46 1004.34 1005.22 1005.76 1006.78 1007.19 1007.22 1008.06 1008.85 1008.95 1009.34 1009.70 1010.42 1010.81 1011.50 1011.96 1012.35 1012.72
991.25 991.73 992.04 992.51 993.25 994.27 995.05 995.71 996.79 997.65 998.63 999.65 1000.52 1001.47 1002.35 1003.13 1003.81 1004.44 1005.06 1005.60 1006.85 1007.28 1007.94 1008.55 1008.77 1008.95 1009.31 1009.69 1010.20 1010.63 1011.48 1012.10 1012.43
992.09 992.62 992.89 993.28 993.90 995.23 995.96 996.58 997.34 998.13 998.94 999.81 1000.52 1001.23 1001.94 1003.01 1004.01 1004.86 1005.62 1005.79 1007.10 1007.59 1007.99 1008.68 1008.92 1008.74 1009.19 1009.47 1009.88 1010.61 1011.02 1011.34 1011.90
992.84 993.48 993.72 994.31 995.09 995.96 996.72 997.18 997.90 998.62 999.35 1000.11 1000.68 1001.27 1002.30 1003.40 1004.14 1004.71 1005.92 1006.39 1007.27 1008.05 1008.28 1008.43 1008.71 1008.82 1009.03 1009.23 1009.70 1010.70 1011.49 1011.71 1012.03
993.49 993.93 994.17 994.88 995.63 996.47 997.41 998.18 998.62 999.24 1000.05 1000.68 1001.44 1002.15 1003.22 1004.08 1004.79 1004.36 1006.38 1007.05 1007.58 1007.94 1008.15 1008.47 1008.87 1008.88 1008.89 1009.34 1010.12 1010.65 1010.85 1011.22 1011.91
995.15 994.82 995.39 995.79 996.51 997.15 998.02 998.75 999.50 999.85 1000.26 1000.92 1001.97 1002.82 1003.38 1004.04 1004.59 1005.36 1006.66 1007.51 1008.32 1008.11 1008.54 1008.95 1008.90 1008.58 1008.82 1009.37 1009.50 1009.88 1010.43 1010.90 1010.32
996.68 996.40 996.52 997.11 997.73 998.57 999.14 999.68 1000.57 1000.90 1001.09 1001.75 1002.09 1002.59 1003.52 1003.83 1004.46 1005.13 1005.72 1006.80 1008.03 1009.19 1009.36 1009.60 1009.44 1009.23 1008.85 1010.15 1010.11 1010.51 1011.07 1011.32 1011.49
997.98 997.78 997.80 998.39 998.20 999.50 999.76 1000.27 1001.07 1001.65 1001.87 1000.91 1001.28 1002.53 1003.34 1003.69 1004.11 1004.57 1005.13 1005.76 1006.52 1007.88 1009.69 1009.78 1009.74 1009.83 1009.92 1010.04 1010.95 1011.28 1011.68 1011.99 1012.36
Thickness
5879 5869 5867 5863 5859 5855 5850 5844 5840 5833 5828 5821 5820 5815 5811 5806 5798 5793 5787 5783 5784 5778 5775 5768 5762 5753 5748 5745 5743 5739 5733 5728 5723
5878 5881 5877 5872 5868 5863 5857 5851 5845 5839 5830 5825 5824 5819 5813 5807 5800 5792 5791 5787 5781 5780 5776 5768 5758 5753 5746 5737 5734 5731 5728 5727 5721
5887 5887 5884 5881 5877 5873 5867 5862 5854 5844 5836 5830 5826 5823 5818 5810 5802 5797 5792 5786 5779 5778 5771 5767 5759 5748 5743 5736 5729 5726 5720 5722 5718
5893 5894 5890 5888 5884 5881 5874 5867 5861 5851 5842 5833 5830 5828 5823 5813 5808 5801 5793 5789 5782 5780 5769 5758 5752 5746 5733 5725 5721 5723 5718 5715 5713
5895 5897 5898 5895 5890 5882 5878 5870 5866 5857 5851 5844 5840 5836 5826 5818 5813 5805 5795 5791 5783 5776 5770 5756 5747 5731 5735 5725 5721 5718 5714 5707 5708
5885 5883 5885 5890 5890 5884 5878 5873 5868 5864 5857 5852 5846 5836 5829 5822 5814 5802 5795 5790 5784 5774 5766 5757 5743 5740 5732 5725 5720 5713 5710 5708 5701
5886 5881 5880 5884 5883 5883 5878 5873 5869 5865 5861 5857 5849 5842 5833 5823 5812 5804 5799 5795 5785 5777 5769 5759 5750 5747 5743 5730 5720 5714 5709 5704 5699
5879 5877 5875 5879 5880 5880 5875 5870 5868 5862 5858 5855 5851 5841 5833 5824 5814 5802 5796 5794 5787 5780 5772 5763 5753 5741 5735 5727 5719 5717 5705 5701 5696
5871 5875 5875 5878 5877 5877 5873 5871 5865 5859 5855 5851 5847 5841 5834 5824 5813 5801 5798 5789 5784 5774 5768 5763 5751 5742 5732 5723 5721 5716 5704 5699 5695
5870 5879 5883 5879 5879 5880 5876 5872 5865 5858 5854 5851 5844 5839 5832 5821 5812 5802 5794 5787 5778 5773 5763 5752 5743 5735 5725 5721 5718 5711 5703 5697 5693
5869 5878 5884 5885 5882 5877 5873 5873 5865 5858 5853 5848 5841 5836 5829 5820 5810 5802 5795 5786 5777 5767 5758 5749 5740 5731 5724 5718 5714 5707 5699 5691 5686
5870 5876 5882 5885 5885 5879 5872 5869 5863 5855 5851 5844 5834 5826 5820 5814 5803 5794 5787 5777 5767 5760 5752 5742 5737 5728 5721 5715 5708 5702 5696 5688 5682
5859 5869 5874 5873 5875 5873 5866 5865 5861 5851 5844 5836 5827 5820 5812 5804 5796 5786 5778 5765 5759 5757 5746 5736 5734 5727 5722 5713 5707 5695 5689 5684 5677
5857 5859 5863 5867 5865 5858 5856 5856 5850 5840 5833 5823 5820 5814 5805 5797 5790 5782 5776 5768 5755 5746 5737 5730 5726 5721 5714 5708 5702 5696 5682 5672 5666
5840 5842 5848 5852 5850 5843 5842 5841 5835 5826 5821 5818 5812 5805 5797 5786 5778 5769 5759 5755 5741 5733 5726 5717 5711 5710 5702 5698 5693 5684 5677 5670 5659
5828 5829 5833 5836 5832 5827 5826 5826 5821 5811 5807 5804 5799 5793 5782 5771 5766 5760 5744 5735 5724 5716 5713 5707 5701 5695 5689 5686 5682 5671 5659 5654 5647
5817 5819 5821 5822 5819 5813 5807 5805 5804 5798 5793 5788 5780 5772 5762 5753 5744 5748 5726 5718 5712 5707 5703 5697 5689 5684 5680 5674 5664 5657 5653 5649 5638
5794 5802 5804 5806 5802 5799 5793 5791 5786 5784 5780 5774 5762 5755 5749 5740 5733 5725 5708 5698 5691 5695 5687 5682 5681 5680 5672 5664 5661 5656 5646 5640 5642
5772 5777 5782 5782 5780 5774 5772 5771 5763 5761 5761 5754 5749 5742 5732 5730 5721 5714 5705 5695 5685 5666 5663 5657 5656 5656 5661 5645 5642 5634 5626 5620 5613
5751 5759 5761 5756 5760 5752 5756 5753 5746 5743 5740 5748 5738 5731 5722 5718 5710 5704 5698 5692 5685 5672 5651 5643 5641 5637 5635 5632 5621 5614 5608 5602 5594